This is the latest recevied weather packets stored in our database for station/object WD9EKA. If no packets are shown the sender has not sent any weather packets the latest 10 day(s).
| Time | Temp. | Humidity | Pressure | Rain* | Wind** | Luminosity | Snow |
|---|---|---|---|---|---|---|---|
| 1787628214 | 14.44° C | 99% | 1013.7 hPa | 0 mm | - | - | - |
| 1787627854 | 15° C | 99% | 1013.6 hPa | 0 mm | - | - | - |
| 1787627494 | 15° C | 99% | 1013.5 hPa | 0 mm | - | - | - |
| 1787627134 | 14.44° C | 99% | 1013.4 hPa | 0 mm | - | - | - |
| 1787626773 | 15° C | 99% | 1013.7 hPa | 0 mm | - | - | - |
| 1787626413 | 15° C | 99% | 1013.6 hPa | 0 mm | - | - | - |
| 1787626053 | 15.56° C | 99% | 1013.6 hPa | 0 mm | - | - | - |
| 1787625693 | 15.56° C | 99% | 1013.5 hPa | 0 mm | - | - | - |
| 1787625378 | 15.56° C | 99% | 1013.3 hPa | 0 mm | - | - | - |
| 1787625058 | 15° C | 99% | 1013.2 hPa | 0 mm | - | - | - |
| 1787624734 | 15.56° C | 99% | 1013.4 hPa | 0 mm | - | - | - |
| 1787624374 | 15° C | 99% | 1013.3 hPa | 0 mm | - | - | - |
| 1787624013 | 15° C | 99% | 1013.2 hPa | 0 mm | - | - | - |
| 1787623653 | 15° C | 99% | 1013.4 hPa | 0 mm | - | - | - |
| 1787622934 | 15.56° C | 99% | 1013.2 hPa | 0 mm | - | - | - |
| 1787622574 | 15.56° C | 99% | 1013.3 hPa | 0 mm | - | - | - |
| 1787622213 | 15.56° C | 99% | 1013.2 hPa | 0 mm | - | - | - |
| 1787621854 | 15.56° C | 98% | 1013.4 hPa | 0 mm | - | - | - |
| 1787621538 | 16.11° C | 98% | 1013.4 hPa | 0 mm | - | - | - |
| 1787621218 | 16.11° C | 98% | 1013 hPa | 0 mm | - | - | - |
| 1787620898 | 16.11° C | 98% | 1013 hPa | 0 mm | - | - | - |
| 1787620593 | 16.67° C | 97% | 1012.9 hPa | 0 mm | - | - | - |
| 1787620233 | 16.67° C | 97% | 1012.9 hPa | 0 mm | - | - | - |
| 1787619874 | 17.22° C | 96% | 1012.9 hPa | 0 mm | - | - | - |
| 1787619554 | 17.22° C | 96% | 1012.6 hPa | 0 mm | - | - | - |
* Rain latest hour (hover to see other rain measurements)
** Current wind speed in m/s (hover to see current wind gust speed)